Location: ??????
(56.0120°N, 39.1740°E)
Time: 14:42:41
(UTC+00:00)

Meteor 1-11 - Pass Details

Date: 14 April 2026
Orbit: 825 x 899 km, 81.2° (Epoch: 16 May)

Event Time Altitude Azimuth Distance (km) Brightness Sun altitude
Rises 17:56:25 0° 345° (NNW) 3,415 8.3 -11.7°
Reaches altitude 10° 17:58:51 10° 346° (NNW) 2,467 7.5 -12.0°
Maximum altitude 18:04:27 87° 76° (ENE) 840 4.2 -12.6°
Enters shadow 18:09:35 12° 166° (SSE) 2,286 6.0 -13.1°
